Location: Boda
(47.1872°N, 9.5454°E)
Time: 09:32:30
(UTC+00:00)

Cosmos 1892 Rocket - Pass Details

Date: 14 May 2021
Orbit: 607 x 632 km, 82.5° (Epoch: 16 June)

Event Time Altitude Azimuth Distance (km) Brightness Sun altitude
Exits shadow 02:52:38 - 184° (S) 2,767 6.5 -8.5°
Reaches altitude 10° 02:54:37 10° 184° (S) 1,956 5.7 -8.2°
Maximum altitude 02:58:57 80° 97° (E) 624 3.7 -7.6°
Drops below altitude 10° 03:03:18 10° 11° (NNE) 1,969 6.9 -7.0°
Sets 03:05:31 0° 11° (N) 2,878 7.8 -6.7°
